Zurück zum Katalog

STARLINK-11152

AktivKommunikationVLEO
NORAD 60194·PAYLOAD·🇺🇸 United States

Gestartet Jul 3, 2024 von Cape Canaveral Space Force Station

Loading…

Nächste Überflüge (nächste 24 Stunden)

TLE

AktuellSource: CelesTrak SupGP

Epoche: Sep 14, 2026, 20:54 UTC

1 60194C 24124M   26257.87131944 -.00052937  00000+0 -43598-3 0  2578
2 60194  53.1564 308.6850 0001283  70.2801  43.4432 15.69739835    15

Verfolge STARLINK-11152 in Echtzeit mit AllMySat

Download on the App Store